Location: Unspecified
(0.0000°N, 0.0000°E)
Time: 23:39:48
(UTC+00:00)

Vanguard 1 - Pass Details

Date: 09 October 2020
Orbit: 649 x 3833 km, 34.3° (Epoch: 28 October)

Event Time Altitude Azimuth Distance (km) Brightness Sun altitude
Rises 09:27:49 0° 219° (SW) 6,183 14.0 54.6°
Reaches altitude 10° 09:33:38 10° 202° (SSW) 5,719 14.0 56.1°
Maximum altitude 09:46:14 20° 160° (SSE) 5,711 14.5 59.1°
Drops below altitude 10° 10:01:15 10° 119° (ESE) 6,941 15.0 62.8°
Sets 10:09:30 0° 104° (ESE) 7,868 15.0 64.8°
